| time (UTC) | temp F | wind direction | speed MPH | gust MPH | rain 1hr in | rain 24hr in | rain mn in | humidity % | barometer mb |
| 20260902030841 | 61 | 120 | 0.0 | 0.0 | 0.00 | 0.51 | 0.51 | 66 | 1016.7 |
| 20260902030338 | 61 | 120 | 0.0 | 0.0 | 0.00 | 0.51 | 0.51 | 66 | 1016.7 |
| 20260902030056 | 60 | 120 | 0.0 | 0.0 | 0.00 | 0.51 | 0.51 | 66 | 1016.5 |
| 20260902025855 | 61 | 120 | 0.0 | 0.0 | 0.00 | 0.51 | 0.51 | 66 | 1016.9 |
| 20260902025354 | 61 | 120 | 0.0 | 0.0 | 0.00 | 0.51 | 0.51 | 66 | 1016.9 |
| 20260902024847 | 61 | 120 | 0.0 | 0.0 | 0.00 | 0.51 | 0.51 | 66 | 1016.9 |
| 20260902024555 | 60 | 120 | 0.0 | 0.0 | 0.00 | 0.51 | 0.51 | 66 | 1016.7 |
| 20260902024346 | 61 | 120 | 0.0 | 0.0 | 0.00 | 0.51 | 0.51 | 66 | 1016.9 |
| 20260902023843 | 61 | 120 | 0.0 | 0.0 | 0.00 | 0.51 | 0.51 | 66 | 1016.9 |
| 20260902023342 | 61 | 120 | 0.0 | 0.0 | 0.00 | 0.51 | 0.51 | 66 | 1016.8 |
| 20260902023041 | 61 | 120 | 0.0 | 0.0 | 0.00 | 0.51 | 0.51 | 66 | 1016.5 |
| 20260902022839 | 61 | 120 | 0.0 | 0.0 | 0.00 | 0.51 | 0.51 | 66 | 1016.8 |
| 20260902022400 | 61 | 120 | 0.0 | 0.0 | 0.00 | 0.51 | 0.51 | 66 | 1016.8 |
| 20260902021836 | 61 | 120 | 0.0 | 0.0 | 0.00 | 0.51 | 0.51 | 66 | 1016.9 |
| 20260902021538 | 61 | 120 | 0.0 | 0.0 | 0.00 | 0.51 | 0.51 | 66 | 1016.6 |
| 20260902021336 | 61 | 120 | 0.0 | 0.0 | 0.00 | 0.51 | 0.51 | 66 | 1016.8 |
| 20260902020341 | 61 | 120 | 0.0 | 0.0 | 0.00 | 0.51 | 0.51 | 66 | 1017.1 |
| 20260902020037 | 61 | 120 | 0.0 | 0.0 | 0.00 | 0.51 | 0.51 | 66 | 1017.0 |
| 20260902015836 | 61 | 120 | 0.0 | 0.0 | 0.00 | 0.51 | 0.51 | 66 | 1017.1 |
| 20260902015345 | 61 | 120 | 0.0 | 0.0 | 0.00 | 0.51 | 0.51 | 66 | 1017.2 |
| 20260902014840 | 61 | 120 | 0.0 | 0.0 | 0.00 | 0.51 | 0.51 | 66 | 1017.0 |
| 20260902014502 | 61 | 120 | 0.0 | 0.0 | 0.00 | 0.51 | 0.51 | 66 | 1016.7 |
| 20260902014400 | 61 | 120 | 0.0 | 0.0 | 0.00 | 0.51 | 0.51 | 66 | 1016.9 |
| 20260902013915 | 61 | 120 | 0.0 | 0.0 | 0.00 | 0.51 | 0.51 | 66 | 1016.8 |
| 20260902013354 | 61 | 120 | 0.0 | 1.0 | 0.00 | 0.51 | 0.51 | 66 | 1016.7 |
| 20260902013010 | 60 | 120 | 0.0 | 1.0 | 0.00 | 0.51 | 0.51 | 66 | 1016.4 |
| 20260902012909 | 61 | 120 | 0.0 | 1.0 | 0.00 | 0.51 | 0.51 | 66 | 1016.7 |
| 20260902012348 | 61 | 120 | 0.0 | 0.0 | 0.00 | 0.51 | 0.51 | 66 | 1016.8 |
| 20260902011845 | 61 | 120 | 0.0 | 0.0 | 0.00 | 0.51 | 0.51 | 66 | 1016.7 |
| 20260902011545 | 61 | 120 | 0.0 | 0.0 | 0.00 | 0.51 | 0.51 | 66 | 1016.5 |
| 20260902011345 | 61 | 120 | 0.0 | 0.0 | 0.00 | 0.51 | 0.51 | 66 | 1016.8 |
| 20260902010853 | 61 | 120 | 0.0 | 0.0 | 0.00 | 0.51 | 0.51 | 66 | 1016.9 |
| 20260902010412 | 61 | 120 | 0.0 | 0.0 | 0.00 | 0.51 | 0.51 | 66 | 1016.8 |
| 20260902010044 | 61 | 120 | 0.0 | 0.0 | 0.00 | 0.51 | 0.51 | 66 | 1016.5 |
| 20260902005843 | 61 | 120 | 0.0 | 0.0 | 0.00 | 0.51 | 0.51 | 66 | 1016.7 |
| 20260902005402 | 61 | 120 | 0.0 | 0.0 | 0.00 | 0.51 | 0.51 | 66 | 1016.7 |
| 20260902004857 | 61 | 120 | 0.0 | 0.0 | 0.00 | 0.51 | 0.51 | 66 | 1016.7 |
| 20260902004536 | 61 | 120 | 0.0 | 0.0 | 0.00 | 0.51 | 0.51 | 66 | 1016.4 |
| 20260902004335 | 61 | 120 | 0.0 | 0.0 | 0.00 | 0.51 | 0.51 | 66 | 1016.7 |
| 20260902003853 | 61 | 120 | 0.0 | 0.0 | 0.00 | 0.51 | 0.51 | 66 | 1016.8 |
| 20260902003406 | 61 | 120 | 0.0 | 0.0 | 0.00 | 0.51 | 0.51 | 66 | 1016.7 |
| 20260902003007 | 61 | 120 | 0.0 | 0.0 | 0.00 | 0.51 | 0.51 | 66 | 1016.2 |
| 20260902002904 | 61 | 120 | 0.0 | 0.0 | 0.00 | 0.51 | 0.51 | 66 | 1016.7 |
| 20260902002342 | 61 | 120 | 0.0 | 0.0 | 0.00 | 0.51 | 0.51 | 66 | 1016.5 |
| 20260902001837 | 61 | 120 | 0.0 | 0.0 | 0.00 | 0.51 | 0.51 | 66 | 1016.4 |
| 20260902001536 | 61 | 120 | 0.0 | 0.0 | 0.00 | 0.51 | 0.51 | 66 | 1016.1 |
| 20260902001334 | 61 | 120 | 0.0 | 0.0 | 0.00 | 0.51 | 0.51 | 66 | 1016.4 |
| 20260902000912 | 61 | 120 | 0.0 | 0.0 | 0.00 | 0.51 | 0.51 | 66 | 1016.3 |
| 20260902000351 | 61 | 120 | 0.0 | 0.0 | 0.00 | 0.51 | 0.51 | 66 | 1016.2 |
| 20260902000006 | 60 | 120 | 0.0 | 0.0 | 0.00 | 0.51 | 0.51 | 66 | 1015.9 |
| 20260901235904 | 61 | 120 | 0.0 | 0.0 | 0.00 | 0.51 | 0.51 | 66 | 1016.2 |
| 20260901235341 | 61 | 120 | 0.0 | 0.0 | 0.00 | 0.51 | 0.51 | 66 | 1016.2 |
| 20260901234913 | 61 | 120 | 0.0 | 0.0 | 0.00 | 0.51 | 0.51 | 66 | 1016.2 |
| 20260901234555 | 60 | 120 | 0.0 | 0.0 | 0.00 | 0.51 | 0.51 | 66 | 1015.9 |
| 20260901234351 | 61 | 120 | 0.0 | 0.0 | 0.00 | 0.51 | 0.51 | 66 | 1016.1 |
| 20260901233845 | 61 | 120 | 0.0 | 0.0 | 0.00 | 0.51 | 0.51 | 66 | 1016.1 |
| 20260901233344 | 61 | 120 | 0.0 | 0.0 | 0.00 | 0.51 | 0.51 | 65 | 1016.2 |
| 20260901233002 | 60 | 120 | 0.0 | 0.0 | 0.00 | 0.51 | 0.51 | 65 | 1015.8 |
| 20260901232902 | 61 | 120 | 0.0 | 0.0 | 0.00 | 0.51 | 0.51 | 65 | 1016.2 |
| 20260901232340 | 61 | 120 | 0.0 | 0.0 | 0.00 | 0.51 | 0.51 | 65 | 1016.4 |
| 20260901231855 | 61 | 120 | 0.0 | 1.0 | 0.00 | 0.51 | 0.51 | 65 | 1016.4 |
| 20260901231522 | 60 | 120 | 0.0 | 1.0 | 0.00 | 0.51 | 0.51 | 65 | 1016.1 |
| 20260901231415 | 61 | 120 | 0.0 | 1.0 | 0.00 | 0.51 | 0.51 | 65 | 1016.5 |
| 20260901230846 | 61 | 120 | 0.0 | 0.0 | 0.00 | 0.51 | 0.51 | 65 | 1016.5 |
| 20260901230407 | 61 | 120 | 0.0 | 0.0 | 0.00 | 0.51 | 0.51 | 65 | 1016.5 |
| 20260901230059 | 60 | 120 | 0.0 | 0.0 | 0.00 | 0.51 | 0.51 | 65 | 1016.1 |
| 20260901225842 | 61 | 120 | 0.0 | 0.0 | 0.00 | 0.51 | 0.51 | 65 | 1016.4 |
| 20260901225343 | 61 | 120 | 0.0 | 1.0 | 0.00 | 0.51 | 0.51 | 65 | 1016.3 |
| 20260901224859 | 61 | 120 | 0.0 | 1.0 | 0.00 | 0.51 | 0.51 | 65 | 1016.3 |
| 20260901224539 | 61 | 118 | 0.0 | 2.0 | 0.00 | 0.51 | 0.51 | 65 | 1015.6 |
| 20260901224337 | 61 | 118 | 0.0 | 2.0 | 0.00 | 0.51 | 0.51 | 65 | 1016.1 |
| 20260901223852 | 61 | 114 | 0.0 | 2.0 | 0.00 | 0.51 | 0.51 | 65 | 1016.1 |
| 20260901223349 | 61 | 127 | 0.0 | 1.0 | 0.00 | 0.51 | 0.51 | 65 | 1016.2 |
| 20260901223009 | 61 | 127 | 0.0 | 2.0 | 0.00 | 0.51 | 0.51 | 65 | 1015.7 |
| 20260901222907 | 62 | 128 | 0.0 | 2.0 | 0.00 | 0.51 | 0.51 | 65 | 1016.1 |
| 20260901222401 | 62 | 122 | 0.0 | 2.0 | 0.00 | 0.51 | 0.51 | 65 | 1016.1 |
| 20260901221833 | 62 | 310 | 0.0 | 1.0 | 0.00 | 0.51 | 0.51 | 65 | 1016.1 |
| 20260901221555 | 62 | 266 | 0.0 | 1.0 | 0.00 | 0.51 | 0.51 | 65 | 1015.8 |
| 20260901221354 | 63 | 114 | 0.0 | 2.0 | 0.00 | 0.51 | 0.51 | 65 | 1016.1 |
| 20260901220909 | 63 | 110 | 0.0 | 2.0 | 0.00 | 0.51 | 0.51 | 65 | 1016.0 |
| 20260901220348 | 63 | 117 | 0.0 | 3.0 | 0.00 | 0.51 | 0.51 | 65 | 1016.0 |
| 20260901220105 | 63 | 115 | 0.0 | 3.0 | 0.00 | 0.51 | 0.51 | 65 | 1015.6 |
| 20260901215845 | 63 | 136 | 1.0 | 3.0 | 0.00 | 0.51 | 0.51 | 65 | 1015.9 |
| 20260901214836 | 64 | 172 | 0.0 | 0.0 | 0.01 | 0.51 | 0.51 | 65 | 1015.7 |
| 20260901214548 | 63 | 174 | 0.0 | 0.0 | 0.01 | 0.51 | 0.51 | 65 | 1015.3 |
| 20260901214337 | 64 | 174 | 0.0 | 0.0 | 0.01 | 0.51 | 0.51 | 65 | 1015.8 |
| 20260901213849 | 64 | 173 | 0.0 | 0.0 | 0.01 | 0.51 | 0.51 | 65 | 1015.6 |
| 20260901213408 | 64 | 174 | 0.0 | 0.0 | 0.01 | 0.51 | 0.51 | 65 | 1015.5 |
| 20260901213050 | 63 | 174 | 0.0 | 0.0 | 0.01 | 0.51 | 0.51 | 65 | 1015.1 |
| 20260901212845 | 64 | 174 | 0.0 | 0.0 | 0.01 | 0.51 | 0.51 | 65 | 1015.6 |
| 20260901212346 | 64 | 173 | 0.0 | 0.0 | 0.01 | 0.51 | 0.51 | 65 | 1015.5 |
| 20260901211844 | 64 | 174 | 0.0 | 0.0 | 0.01 | 0.51 | 0.51 | 65 | 1015.5 |
| 20260901211546 | 64 | 174 | 0.0 | 0.0 | 0.01 | 0.51 | 0.51 | 65 | 1015.2 |
| 20260901211344 | 64 | 174 | 0.0 | 0.0 | 0.01 | 0.51 | 0.51 | 65 | 1015.7 |
| 20260901210841 | 64 | 174 | 0.0 | 0.0 | 0.02 | 0.51 | 0.51 | 65 | 1015.6 |
| 20260901210339 | 64 | 174 | 0.0 | 0.0 | 0.02 | 0.51 | 0.51 | 65 | 1015.6 |
| 20260901210058 | 64 | 174 | 0.0 | 0.0 | 0.02 | 0.51 | 0.51 | 65 | 1015.2 |
| 20260901205857 | 64 | 174 | 0.0 | 0.0 | 0.02 | 0.51 | 0.51 | 65 | 1015.5 |
| 20260901205412 | 64 | 174 | 0.0 | 0.0 | 0.02 | 0.50 | 0.50 | 65 | 1015.5 |
| 20260901204847 | 64 | 174 | 0.0 | 0.0 | 0.02 | 0.50 | 0.50 | 65 | 1015.3 |
| 20260901204548 | 64 | 174 | 0.0 | 0.0 | 0.02 | 0.50 | 0.50 | 65 | 1014.9 |
| 20260901204346 | 64 | 174 | 0.0 | 0.0 | 0.02 | 0.50 | 0.50 | 65 | 1015.3 |
| 20260901203839 | 64 | 174 | 0.0 | 0.0 | 0.02 | 0.50 | 0.50 | 65 | 1015.3 |
| 20260901203359 | 64 | 173 | 0.0 | 0.0 | 0.02 | 0.50 | 0.50 | 65 | 1015.2 |
| 20260901203021 | 64 | 174 | 0.0 | 0.0 | 0.02 | 0.50 | 0.50 | 65 | 1014.8 |
| 20260901202914 | 64 | 176 | 0.0 | 0.0 | 0.02 | 0.50 | 0.50 | 65 | 1015.3 |
| 20260901202413 | 64 | 256 | 0.0 | 0.0 | 0.02 | 0.50 | 0.50 | 65 | 1015.3 |
| 20260901201849 | 64 | 255 | 0.0 | 0.0 | 0.03 | 0.50 | 0.50 | 65 | 1015.3 |
| 20260901201552 | 64 | 256 | 0.0 | 0.0 | 0.03 | 0.50 | 0.50 | 65 | 1014.8 |
| 20260901201345 | 64 | 263 | 0.0 | 0.0 | 0.03 | 0.50 | 0.50 | 65 | 1015.2 |
| 20260901200904 | 64 | 263 | 0.0 | 0.0 | 0.02 | 0.49 | 0.49 | 65 | 1015.2 |
| 20260901200343 | 64 | 266 | 0.0 | 0.0 | 0.02 | 0.49 | 0.49 | 65 | 1015.1 |
| 20260901200044 | 64 | 266 | 0.0 | 0.0 | 0.02 | 0.49 | 0.49 | 65 | 1014.8 |
| 20260901195840 | 64 | 268 | 0.0 | 0.0 | 0.03 | 0.49 | 0.49 | 65 | 1015.2 |
| 20260901195340 | 64 | 268 | 0.0 | 0.0 | 0.02 | 0.48 | 0.48 | 65 | 1015.2 |
| 20260901194836 | 64 | 268 | 0.0 | 0.0 | 0.02 | 0.48 | 0.48 | 65 | 1015.3 |
| 20260901194556 | 63 | 268 | 0.0 | 0.0 | 0.02 | 0.48 | 0.48 | 65 | 1014.8 |
| 20260901194354 | 64 | 268 | 0.0 | 0.0 | 0.02 | 0.48 | 0.48 | 65 | 1015.3 |
| 20260901193849 | 64 | 268 | 0.0 | 0.0 | 0.02 | 0.48 | 0.48 | 65 | 1015.2 |
| 20260901193405 | 64 | 268 | 0.0 | 0.0 | 0.03 | 0.48 | 0.48 | 65 | 1015.2 |
| 20260901193043 | 63 | 268 | 0.0 | 0.0 | 0.03 | 0.48 | 0.48 | 65 | 1014.8 |
| 20260901192842 | 64 | 268 | 0.0 | 0.0 | 0.03 | 0.48 | 0.48 | 65 | 1015.2 |
| 20260901192341 | 64 | 268 | 0.0 | 0.0 | 0.03 | 0.48 | 0.48 | 65 | 1015.2 |
| 20260901191836 | 64 | 268 | 0.0 | 0.0 | 0.03 | 0.47 | 0.47 | 65 | 1015.3 |
| 20260901191551 | 63 | 268 | 0.0 | 0.0 | 0.03 | 0.47 | 0.47 | 65 | 1014.8 |
| 20260901191335 | 64 | 268 | 0.0 | 0.0 | 0.03 | 0.47 | 0.47 | 65 | 1015.3 |
| 20260901190853 | 64 | 268 | 0.0 | 0.0 | 0.04 | 0.47 | 0.47 | 65 | 1015.3 |
| 20260901190351 | 64 | 274 | 0.0 | 0.0 | 0.05 | 0.47 | 0.47 | 65 | 1015.3 |
| 20260901190008 | 63 | 274 | 0.0 | 0.0 | 0.04 | 0.46 | 0.46 | 65 | 1014.8 |
| 20260901185907 | 64 | 274 | 0.0 | 0.0 | 0.04 | 0.46 | 0.46 | 65 | 1015.3 |
| 20260901185406 | 63 | 274 | 0.0 | 0.0 | 0.04 | 0.46 | 0.46 | 65 | 1015.3 |
| 20260901184842 | 63 | 274 | 0.0 | 0.0 | 0.04 | 0.46 | 0.46 | 65 | 1015.3 |
| 20260901184613 | 63 | 274 | 0.0 | 0.0 | 0.04 | 0.46 | 0.46 | 65 | 1014.9 |
| 20260901184358 | 63 | 274 | 0.0 | 0.0 | 0.04 | 0.46 | 0.46 | 65 | 1015.3 |
| 20260901183912 | 63 | 276 | 0.0 | 0.0 | 0.04 | 0.46 | 0.46 | 65 | 1015.3 |
| 20260901183350 | 63 | 276 | 0.0 | 0.0 | 0.03 | 0.45 | 0.45 | 65 | 1015.3 |
| 20260901183053 | 63 | 276 | 0.0 | 0.0 | 0.03 | 0.45 | 0.45 | 65 | 1014.9 |
| 20260901182847 | 63 | 276 | 0.0 | 0.0 | 0.03 | 0.45 | 0.45 | 65 | 1015.4 |
| 20260901182346 | 63 | 276 | 0.0 | 0.0 | 0.03 | 0.45 | 0.45 | 65 | 1015.4 |
| 20260901181842 | 63 | 276 | 0.0 | 0.0 | 0.02 | 0.44 | 0.44 | 65 | 1015.3 |
| 20260901181553 | 62 | 276 | 0.0 | 0.0 | 0.02 | 0.44 | 0.44 | 65 | 1014.9 |
| 20260901181342 | 63 | 276 | 0.0 | 0.0 | 0.03 | 0.44 | 0.44 | 65 | 1015.4 |
| 20260901180841 | 63 | 276 | 0.0 | 0.0 | 0.02 | 0.43 | 0.43 | 65 | 1015.3 |
| 20260901180437 | 63 | 276 | 0.0 | 0.0 | 0.01 | 0.42 | 0.42 | 65 | 1015.4 |
| 20260901180046 | 62 | 276 | 0.0 | 0.0 | 0.01 | 0.42 | 0.42 | 65 | 1014.8 |
| 20260901175409 | 62 | 276 | 0.0 | 0.0 | 0.01 | 0.42 | 0.42 | 65 | 1015.4 |
| 20260901174843 | 62 | 276 | 0.0 | 0.0 | 0.01 | 0.42 | 0.42 | 65 | 1015.2 |
| 20260901174554 | 62 | 276 | 0.0 | 0.0 | 0.01 | 0.42 | 0.42 | 65 | 1014.8 |
| 20260901174344 | 62 | 276 | 0.0 | 0.0 | 0.01 | 0.42 | 0.42 | 65 | 1015.2 |
| 20260901173901 | 62 | 193 | 0.0 | 0.0 | 0.02 | 0.42 | 0.42 | 65 | 1015.0 |
| 20260901173338 | 62 | 193 | 0.0 | 0.0 | 0.02 | 0.42 | 0.42 | 65 | 1015.0 |
| 20260901173054 | 61 | 194 | 0.0 | 0.0 | 0.02 | 0.42 | 0.42 | 65 | 1014.5 |
| 20260901172853 | 62 | 195 | 0.0 | 0.0 | 0.02 | 0.42 | 0.42 | 65 | 1015.0 |
| 20260901172407 | 61 | 195 | 0.0 | 0.0 | 0.03 | 0.42 | 0.42 | 65 | 1015.0 |
| 20260901171843 | 61 | 195 | 0.0 | 0.0 | 0.03 | 0.42 | 0.42 | 65 | 1014.9 |
| 20260901171541 | 61 | 195 | 0.0 | 0.0 | 0.03 | 0.42 | 0.42 | 65 | 1014.5 |
| 20260901170846 | 61 | 197 | 0.0 | 0.0 | 0.02 | 0.41 | 0.41 | 65 | 1015.0 |
| 20260901170345 | 61 | 198 | 0.0 | 1.0 | 0.02 | 0.41 | 0.41 | 65 | 1015.0 |
| 20260901170043 | 61 | 198 | 0.0 | 1.0 | 0.02 | 0.41 | 0.41 | 65 | 1014.6 |
| 20260901165841 | 61 | 234 | 0.0 | 1.0 | 0.02 | 0.41 | 0.41 | 65 | 1015.0 |
| 20260901165342 | 61 | 113 | 0.0 | 0.0 | 0.02 | 0.41 | 0.41 | 65 | 1015.1 |
| 20260901164510 | 60 | 112 | 0.0 | 0.0 | 0.02 | 0.41 | 0.41 | 65 | 1014.7 |
| 20260901164409 | 61 | 112 | 0.0 | 0.0 | 0.02 | 0.41 | 0.41 | 65 | 1015.2 |
| 20260901163845 | 61 | 112 | 0.0 | 0.0 | 0.01 | 0.40 | 0.40 | 65 | 1015.2 |
| 20260901163346 | 61 | 113 | 0.0 | 1.0 | 0.01 | 0.40 | 0.40 | 65 | 1015.2 |
| 20260901163100 | 60 | 112 | 0.0 | 1.0 | 0.01 | 0.40 | 0.40 | 65 | 1014.8 |
| 20260901162859 | 61 | 112 | 0.0 | 1.0 | 0.01 | 0.40 | 0.40 | 65 | 1015.3 |
| 20260901162358 | 61 | 112 | 0.0 | 1.0 | 0.00 | 0.39 | 0.39 | 65 | 1015.3 |
| 20260901161834 | 61 | 112 | 0.0 | 1.0 | 0.00 | 0.39 | 0.39 | 65 | 1015.3 |
| 20260901161546 | 61 | 112 | 0.0 | 1.0 | 0.00 | 0.39 | 0.39 | 65 | 1014.8 |
| 20260901161335 | 61 | 112 | 0.0 | 1.0 | 0.00 | 0.39 | 0.39 | 65 | 1015.4 |
| 20260901160913 | 61 | 246 | 0.0 | 1.0 | 0.00 | 0.39 | 0.39 | 65 | 1015.4 |
| 20260901160410 | 61 | 248 | 0.0 | 3.0 | 0.00 | 0.39 | 0.39 | 65 | 1015.5 |
| 20260901160105 | 61 | 248 | 0.0 | 3.0 | 0.00 | 0.39 | 0.39 | 65 | 1015.0 |
| 20260901155844 | 62 | 250 | 0.0 | 3.0 | 0.00 | 0.39 | 0.39 | 65 | 1015.5 |
| 20260901155344 | 62 | 132 | 0.0 | 0.0 | 0.00 | 0.39 | 0.39 | 65 | 1015.4 |
| 20260901154840 | 62 | 131 | 0.0 | 0.0 | 0.00 | 0.39 | 0.39 | 65 | 1015.2 |
| 20260901154558 | 61 | 131 | 0.0 | 0.0 | 0.00 | 0.39 | 0.39 | 65 | 1014.8 |
| 20260901154356 | 62 | 131 | 0.0 | 0.0 | 0.00 | 0.39 | 0.39 | 65 | 1015.3 |
| 20260901153852 | 62 | 108 | 0.0 | 0.0 | 0.00 | 0.39 | 0.39 | 65 | 1015.3 |
| 20260901153351 | 62 | 108 | 0.0 | 0.0 | 0.00 | 0.39 | 0.39 | 65 | 1015.0 |
| 20260901153008 | 61 | 108 | 0.0 | 0.0 | 0.00 | 0.39 | 0.39 | 65 | 1014.6 |
| 20260901152907 | 62 | 108 | 0.0 | 0.0 | 0.00 | 0.39 | 0.39 | 65 | 1015.1 |
| 20260901152407 | 62 | 108 | 0.0 | 0.0 | 0.00 | 0.39 | 0.39 | 65 | 1015.1 |
| 20260901151843 | 62 | 108 | 0.0 | 0.0 | 0.00 | 0.39 | 0.39 | 65 | 1015.2 |
| 20260901151546 | 61 | 108 | 0.0 | 0.0 | 0.00 | 0.39 | 0.39 | 65 | 1014.6 |
| 20260901151343 | 62 | 108 | 0.0 | 0.0 | 0.00 | 0.39 | 0.39 | 65 | 1015.2 |
| 20260901150841 | 62 | 108 | 0.0 | 0.0 | 0.00 | 0.39 | 0.39 | 65 | 1015.1 |
| 20260901150341 | 62 | 108 | 0.0 | 0.0 | 0.00 | 0.39 | 0.39 | 65 | 1015.1 |
| 20260901150055 | 61 | 108 | 0.0 | 0.0 | 0.00 | 0.39 | 0.39 | 65 | 1014.7 |
| 20260901145854 | 62 | 108 | 0.0 | 0.0 | 0.00 | 0.39 | 0.39 | 65 | 1015.3 |
| 20260901145334 | 62 | 108 | 0.0 | 0.0 | 0.00 | 0.39 | 0.39 | 65 | 1015.3 |
| 20260901144849 | 62 | 108 | 0.0 | 0.0 | 0.00 | 0.39 | 0.39 | 65 | 1015.2 |
| 20260901144551 | 61 | 108 | 0.0 | 0.0 | 0.00 | 0.39 | 0.39 | 65 | 1014.8 |
| 20260901144349 | 62 | 108 | 0.0 | 0.0 | 0.00 | 0.39 | 0.39 | 65 | 1015.3 |
| 20260901143845 | 62 | 108 | 0.0 | 0.0 | 0.00 | 0.39 | 0.39 | 65 | 1015.2 |
| 20260901143345 | 62 | 108 | 0.0 | 0.0 | 0.00 | 0.39 | 0.39 | 65 | 1015.0 |
| 20260901143120 | 61 | 108 | 0.0 | 1.0 | 0.00 | 0.39 | 0.39 | 65 | 1014.6 |
| 20260901142855 | 62 | 108 | 0.0 | 1.0 | 0.00 | 0.39 | 0.39 | 65 | 1015.0 |
| 20260901142415 | 62 | 108 | 0.0 | 1.0 | 0.00 | 0.39 | 0.39 | 65 | 1015.2 |
| 20260901141851 | 62 | 108 | 0.0 | 1.0 | 0.00 | 0.39 | 0.39 | 65 | 1015.1 |
| 20260901141547 | 61 | 108 | 0.0 | 1.0 | 0.00 | 0.39 | 0.39 | 65 | 1014.6 |
| 20260901141344 | 62 | 108 | 0.0 | 1.0 | 0.00 | 0.39 | 0.39 | 65 | 1015.0 |
| 20260901140841 | 62 | 108 | 0.0 | 1.0 | 0.00 | 0.39 | 0.39 | 65 | 1015.1 |
| 20260901140340 | 62 | 108 | 0.0 | 1.0 | 0.01 | 0.39 | 0.39 | 65 | 1015.2 |
| 20260901140041 | 61 | 108 | 0.0 | 1.0 | 0.01 | 0.39 | 0.39 | 65 | 1014.6 |
| 20260901135835 | 62 | 108 | 0.0 | 1.0 | 0.02 | 0.39 | 0.39 | 65 | 1015.0 |
| 20260901135336 | 62 | 112 | 0.0 | 1.0 | 0.04 | 0.39 | 0.39 | 65 | 1015.0 |
| 20260901134834 | 62 | 110 | 0.0 | 1.0 | 0.05 | 0.39 | 0.39 | 65 | 1015.1 |
| 20260901134522 | 62 | 110 | 0.0 | 0.0 | 0.06 | 0.39 | 0.39 | 65 | 1014.5 |
| 20260901134414 | 62 | 110 | 0.0 | 1.0 | 0.07 | 0.39 | 0.39 | 65 | 1015.0 |
| 20260901133856 | 62 | 110 | 0.0 | 1.0 | 0.10 | 0.39 | 0.39 | 64 | 1015.1 |
| 20260901133413 | 63 | 110 | 0.0 | 1.0 | 0.13 | 0.39 | 0.39 | 65 | 1015.1 |
| 20260901133047 | 62 | 262 | 0.0 | 1.0 | 0.14 | 0.39 | 0.39 | 65 | 1014.8 |
| 20260901132845 | 63 | 295 | 0.0 | 1.0 | 0.16 | 0.39 | 0.39 | 65 | 1015.2 |
| 20260901132346 | 63 | 295 | 0.0 | 1.0 | 0.19 | 0.39 | 0.39 | 65 | 1015.2 |
| 20260901131842 | 63 | 250 | 0.0 | 1.0 | 0.21 | 0.39 | 0.39 | 65 | 1015.3 |
| 20260901131549 | 62 | 250 | 0.0 | 1.0 | 0.22 | 0.39 | 0.39 | 65 | 1014.9 |
| 20260901131342 | 63 | 250 | 0.0 | 1.0 | 0.23 | 0.39 | 0.39 | 65 | 1015.5 |
| 20260901130838 | 63 | 271 | 0.0 | 1.0 | 0.24 | 0.39 | 0.39 | 65 | 1015.6 |
| 20260901130339 | 63 | 44 | 0.0 | 0.0 | 0.25 | 0.38 | 0.38 | 65 | 1015.5 |
| 20260901130034 | 63 | 45 | 0.0 | 0.0 | 0.26 | 0.38 | 0.38 | 65 | 1015.1 |
| 20260901125834 | 63 | 44 | 0.0 | 0.0 | 0.26 | 0.37 | 0.37 | 65 | 1015.5 |
| 20260901125353 | 63 | 44 | 0.0 | 0.0 | 0.26 | 0.35 | 0.35 | 65 | 1015.5 |
| 20260901124910 | 63 | 45 | 0.0 | 1.0 | 0.27 | 0.34 | 0.34 | 65 | 1015.4 |
| 20260901124550 | 63 | 45 | 0.0 | 1.0 | 0.26 | 0.33 | 0.33 | 65 | 1015.0 |
| 20260901124349 | 63 | 45 | 0.0 | 1.0 | 0.26 | 0.32 | 0.32 | 65 | 1015.5 |
| 20260901123341 | 63 | 224 | 0.0 | 0.0 | 0.23 | 0.26 | 0.26 | 64 | 1015.4 |
| 20260901123048 | 62 | 224 | 0.0 | 0.0 | 0.24 | 0.25 | 0.25 | 64 | 1015.0 |
| 20260901122839 | 63 | 224 | 0.0 | 0.0 | 0.22 | 0.23 | 0.23 | 64 | 1015.4 |
| 20260901122359 | 63 | 224 | 0.0 | 0.0 | 0.19 | 0.20 | 0.20 | 64 | 1015.5 |
| 20260901121834 | 63 | 224 | 0.0 | 0.0 | 0.17 | 0.18 | 0.18 | 64 | 1015.7 |
| 20260901121556 | 63 | 224 | 0.0 | 0.0 | 0.16 | 0.17 | 0.17 | 64 | 1015.3 |
| 20260901121353 | 63 | 224 | 0.0 | 0.0 | 0.15 | 0.16 | 0.16 | 64 | 1015.6 |
| 20260901120850 | 63 | 224 | 0.0 | 0.0 | 0.14 | 0.15 | 0.15 | 64 | 1015.9 |
| 20260901120351 | 63 | 224 | 0.0 | 0.0 | 0.12 | 0.13 | 0.13 | 63 | 1015.8 |
| 20260901120057 | 63 | 224 | 0.0 | 0.0 | 0.12 | 0.12 | 0.12 | 63 | 1015.0 |
| 20260901115847 | 63 | 224 | 0.0 | 0.0 | 0.11 | 0.11 | 0.11 | 63 | 1015.6 |
| 20260901115348 | 63 | 224 | 0.0 | 0.0 | 0.09 | 0.09 | 0.09 | 63 | 1015.7 |
| 20260901114843 | 63 | 224 | 0.0 | 0.0 | 0.07 | 0.07 | 0.07 | 63 | 1015.6 |
| 20260901114547 | 63 | 224 | 0.0 | 0.0 | 0.06 | 0.06 | 0.06 | 63 | 1015.1 |
| 20260901114342 | 63 | 224 | 0.0 | 0.0 | 0.06 | 0.06 | 0.06 | 62 | 1015.6 |
| 20260901113855 | 63 | 224 | 0.0 | 0.0 | 0.05 | 0.05 | 0.05 | 62 | 1015.5 |
| 20260901113355 | 63 | 224 | 0.0 | 0.0 | 0.03 | 0.03 | 0.03 | 62 | 1015.2 |
| 20260901113035 | 63 | 224 | 0.0 | 0.0 | 0.01 | 0.01 | 0.01 | 62 | 1014.8 |
| 20260901112930 | 63 | 224 | 0.0 | 0.0 | 0.01 | 0.01 | 0.01 | 61 | 1015.3 |
| 20260901112345 | 63 | 224 | 0.0 | 0.0 | 0.01 | 0.01 | 0.01 | 61 | 1015.3 |
| 20260901111844 | 63 | 224 | 0.0 | 0.0 | 0.01 | 0.01 | 0.01 | 60 | 1015.3 |
| 20260901111504 | 63 | 224 | 0.0 | 0.0 | 0.01 | 0.01 | 0.01 | 60 | 1014.8 |
| 20260901111403 | 63 | 224 | 0.0 | 0.0 | 0.01 | 0.01 | 0.01 | 59 | 1015.3 |
| 20260901110855 | 63 | 224 | 0.0 | 0.0 | 0.01 | 0.01 | 0.01 | 58 | 1015.2 |
| 20260901110350 | 63 | 224 | 0.0 | 0.0 | 0.01 | 0.01 | 0.01 | 57 | 1015.2 |
| 20260901110048 | 63 | 224 | 0.0 | 0.0 | 0.00 | 0.00 | 0.00 | 57 | 1014.7 |
| 20260901105847 | 63 | 224 | 0.0 | 0.0 | 0.00 | 0.00 | 0.00 | 57 | 1015.2 |
| 20260901105347 | 63 | 224 | 0.0 | 0.0 | 0.00 | 0.00 | 0.00 | 57 | 1015.2 |
| 20260901104843 | 63 | 224 | 0.0 | 0.0 | 0.00 | 0.00 | 0.00 | 57 | 1015.0 |
| 20260901104548 | 63 | 224 | 0.0 | 0.0 | 0.00 | 0.00 | 0.00 | 57 | 1014.5 |
| 20260901104343 | 63 | 224 | 0.0 | 0.0 | 0.00 | 0.00 | 0.00 | 57 | 1015.1 |
| 20260901103836 | 64 | 224 | 0.0 | 0.0 | 0.00 | 0.00 | 0.00 | 57 | 1015.0 |
| 20260901103435 | 64 | 224 | 0.0 | 0.0 | 0.00 | 0.00 | 0.00 | 58 | 1014.8 |
| 20260901103046 | 63 | 224 | 0.0 | 0.0 | 0.00 | 0.00 | 0.00 | 58 | 1014.3 |
| 20260901102846 | 64 | 224 | 0.0 | 0.0 | 0.00 | 0.00 | 0.00 | 58 | 1014.7 |
| 20260901102346 | 64 | 224 | 0.0 | 0.0 | 0.00 | 0.00 | 0.00 | 58 | 1014.7 |
| 20260901101843 | 64 | 224 | 0.0 | 0.0 | 0.00 | 0.00 | 0.00 | 59 | 1014.6 |
| 20260901101541 | 63 | 224 | 0.0 | 0.0 | 0.00 | 0.00 | 0.00 | 59 | 1014.2 |
| 20260901101339 | 64 | 224 | 0.0 | 0.0 | 0.00 | 0.00 | 0.00 | 59 | 1014.7 |
| 20260901100836 | 64 | 224 | 0.0 | 0.0 | 0.00 | 0.00 | 0.00 | 59 | 1014.5 |
| 20260901100336 | 64 | 224 | 0.0 | 0.0 | 0.00 | 0.00 | 0.00 | 60 | 1014.4 |
| 20260901100016 | 63 | 224 | 0.0 | 0.0 | 0.00 | 0.00 | 0.00 | 60 | 1014.0 |
| 20260901095914 | 64 | 224 | 0.0 | 0.0 | 0.00 | 0.00 | 0.00 | 60 | 1014.4 |
| 20260901095352 | 64 | 224 | 0.0 | 0.0 | 0.00 | 0.00 | 0.00 | 60 | 1014.4 |
| 20260901094849 | 64 | 224 | 0.0 | 0.0 | 0.00 | 0.00 | 0.00 | 60 | 1014.5 |
| 20260901094549 | 63 | 224 | 0.0 | 0.0 | 0.00 | 0.00 | 0.00 | 60 | 1014.1 |
| 20260901094347 | 64 | 224 | 0.0 | 0.0 | 0.00 | 0.00 | 0.00 | 60 | 1014.5 |
| 20260901093945 | 64 | 224 | 0.0 | 0.0 | 0.00 | 0.00 | 0.00 | 60 | 1014.4 |
| 20260901093335 | 64 | 224 | 0.0 | 0.0 | 0.00 | 0.00 | 0.00 | 60 | 1014.4 |
| 20260901093050 | 64 | 224 | 0.0 | 0.0 | 0.00 | 0.00 | 0.00 | 60 | 1013.9 |
| 20260901092849 | 64 | 224 | 0.0 | 0.0 | 0.00 | 0.00 | 0.00 | 60 | 1014.3 |
| 20260901092409 | 64 | 224 | 0.0 | 0.0 | 0.00 | 0.00 | 0.00 | 60 | 1014.4 |
| 20260901091905 | 64 | 224 | 0.0 | 0.0 | 0.00 | 0.00 | 0.00 | 60 | 1014.4 |
| 20260901091545 | 64 | 224 | 0.0 | 0.0 | 0.00 | 0.00 | 0.00 | 60 | 1013.9 |
| 20260901091343 | 64 | 224 | 0.0 | 0.0 | 0.00 | 0.00 | 0.00 | 60 | 1014.4 |
| 20260901090840 | 64 | 224 | 0.0 | 0.0 | 0.00 | 0.00 | 0.00 | 60 | 1014.5 |
| 20260901090340 | 64 | 224 | 0.0 | 0.0 | 0.00 | 0.00 | 0.00 | 60 | 1014.4 |
| 20260901090056 | 64 | 224 | 0.0 | 0.0 | 0.00 | 0.00 | 0.00 | 60 | 1013.9 |
| 20260901085855 | 64 | 224 | 0.0 | 0.0 | 0.00 | 0.00 | 0.00 | 60 | 1014.3 |
| 20260901085450 | 64 | 224 | 0.0 | 0.0 | 0.00 | 0.00 | 0.00 | 60 | 1014.5 |
| 20260901084841 | 64 | 224 | 0.0 | 0.0 | 0.00 | 0.00 | 0.00 | 60 | 1014.4 |
| 20260901084542 | 64 | 224 | 0.0 | 0.0 | 0.00 | 0.00 | 0.00 | 60 | 1013.9 |
| 20260901084341 | 64 | 224 | 0.0 | 0.0 | 0.00 | 0.00 | 0.00 | 60 | 1014.3 |
| 20260901083836 | 64 | 224 | 0.0 | 0.0 | 0.00 | 0.00 | 0.00 | 60 | 1014.3 |
| 20260901083334 | 64 | 224 | 0.0 | 0.0 | 0.00 | 0.00 | 0.00 | 60 | 1014.3 |
| 20260901083053 | 64 | 224 | 0.0 | 0.0 | 0.00 | 0.00 | 0.00 | 60 | 1013.9 |
| 20260901082852 | 64 | 224 | 0.0 | 0.0 | 0.00 | 0.00 | 0.00 | 60 | 1014.4 |
| 20260901082352 | 64 | 224 | 0.0 | 0.0 | 0.00 | 0.00 | 0.00 | 60 | 1014.4 |
| 20260901081847 | 64 | 224 | 0.0 | 0.0 | 0.00 | 0.00 | 0.00 | 60 | 1014.4 |
| 20260901081549 | 64 | 224 | 0.0 | 0.0 | 0.00 | 0.00 | 0.00 | 60 | 1014.0 |
| 20260901081347 | 64 | 224 | 0.0 | 0.0 | 0.00 | 0.00 | 0.00 | 60 | 1014.4 |
| 20260901080840 | 64 | 224 | 0.0 | 0.0 | 0.00 | 0.00 | 0.00 | 60 | 1014.4 |
| 20260901080340 | 64 | 224 | 0.0 | 0.0 | 0.00 | 0.00 | 0.00 | 60 | 1014.4 |
| 20260901080038 | 64 | 224 | 0.0 | 0.0 | 0.00 | 0.00 | 0.00 | 60 | 1013.9 |
| 20260901075345 | 64 | 224 | 0.0 | 0.0 | 0.00 | 0.00 | 0.00 | 60 | 1014.3 |
| 20260901074843 | 64 | 224 | 0.0 | 0.0 | 0.00 | 0.00 | 0.00 | 60 | 1014.4 |
| 20260901074548 | 64 | 224 | 0.0 | 0.0 | 0.00 | 0.00 | 0.00 | 60 | 1014.0 |
| 20260901074343 | 64 | 224 | 0.0 | 0.0 | 0.00 | 0.00 | 0.00 | 60 | 1014.4 |
| 20260901073834 | 64 | 224 | 0.0 | 0.0 | 0.00 | 0.00 | 0.00 | 60 | 1014.6 |
| 20260901073354 | 64 | 224 | 0.0 | 0.0 | 0.00 | 0.00 | 0.00 | 60 | 1014.6 |
| 20260901073053 | 64 | 224 | 0.0 | 0.0 | 0.00 | 0.00 | 0.00 | 60 | 1014.1 |
| 20260901072852 | 64 | 224 | 0.0 | 0.0 | 0.00 | 0.00 | 0.00 | 60 | 1014.7 |
| 20260901072350 | 64 | 224 | 0.0 | 0.0 | 0.00 | 0.00 | 0.00 | 60 | 1014.7 |
| 20260901071847 | 64 | 224 | 0.0 | 0.0 | 0.00 | 0.00 | 0.00 | 60 | 1014.8 |
| 20260901071550 | 64 | 224 | 0.0 | 0.0 | 0.00 | 0.00 | 0.00 | 60 | 1014.5 |
| 20260901071348 | 64 | 224 | 0.0 | 0.0 | 0.00 | 0.00 | 0.00 | 60 | 1015.0 |
| 20260901070841 | 64 | 224 | 0.0 | 0.0 | 0.00 | 0.00 | 0.00 | 60 | 1015.0 |
| 20260901070402 | 64 | 224 | 0.0 | 0.0 | 0.00 | 0.00 | 0.00 | 60 | 1014.8 |
| 20260901070039 | 64 | 224 | 0.0 | 0.0 | 0.00 | 0.00 | 0.00 | 60 | 1014.5 |
| 20260901065839 | 64 | 224 | 0.0 | 0.0 | 0.00 | 0.00 | 0.00 | 60 | 1014.9 |
| 20260901065339 | 64 | 224 | 0.0 | 0.0 | 0.00 | 0.00 | 0.00 | 60 | 1015.0 |
| 20260901064855 | 64 | 224 | 0.0 | 0.0 | 0.00 | 0.00 | 0.00 | 60 | 1015.0 |
| 20260901064555 | 64 | 224 | 0.0 | 0.0 | 0.00 | 0.00 | 0.00 | 60 | 1014.6 |
| 20260901064354 | 64 | 224 | 0.0 | 0.0 | 0.00 | 0.00 | 0.00 | 60 | 1015.1 |
| 20260901063910 | 64 | 224 | 0.0 | 0.0 | 0.00 | 0.00 | 0.00 | 60 | 1015.1 |
| 20260901063349 | 64 | 224 | 0.0 | 0.0 | 0.00 | 0.00 | 0.00 | 60 | 1015.1 |
| 20260901063103 | 64 | 224 | 0.0 | 0.0 | 0.00 | 0.00 | 0.00 | 60 | 1014.6 |
| 20260901062845 | 64 | 224 | 0.0 | 0.0 | 0.00 | 0.00 | 0.00 | 60 | 1015.1 |
| 20260901062344 | 64 | 224 | 0.0 | 0.0 | 0.00 | 0.00 | 0.00 | 60 | 1015.1 |
| 20260901061838 | 64 | 224 | 0.0 | 0.0 | 0.00 | 0.00 | 0.00 | 60 | 1015.1 |
| 20260901061552 | 64 | 224 | 0.0 | 0.0 | 0.00 | 0.00 | 0.00 | 60 | 1014.7 |
| 20260901061339 | 64 | 224 | 0.0 | 0.0 | 0.00 | 0.00 | 0.00 | 60 | 1015.0 |
| 20260901060914 | 64 | 224 | 0.0 | 0.0 | 0.00 | 0.00 | 0.00 | 60 | 1015.2 |
| 20260901060412 | 64 | 224 | 0.0 | 0.0 | 0.00 | 0.00 | 0.00 | 60 | 1015.1 |
| 20260901060057 | 64 | 224 | 0.0 | 0.0 | 0.00 | 0.00 | 0.00 | 60 | 1014.7 |
| 20260901055849 | 64 | 224 | 0.0 | 0.0 | 0.00 | 0.00 | 0.00 | 60 | 1015.2 |
| 20260901055348 | 64 | 224 | 0.0 | 0.0 | 0.00 | 0.00 | 0.00 | 60 | 1015.2 |
| 20260901054845 | 64 | 224 | 0.0 | 0.0 | 0.00 | 0.00 | 0.00 | 60 | 1015.1 |
| 20260901054548 | 63 | 224 | 0.0 | 0.0 | 0.00 | 0.00 | 0.00 | 60 | 1014.7 |
| 20260901054345 | 64 | 224 | 0.0 | 0.0 | 0.00 | 0.00 | 0.00 | 60 | 1015.2 |
| 20260901053840 | 64 | 224 | 0.0 | 0.0 | 0.00 | 0.00 | 0.00 | 60 | 1015.2 |
| 20260901053339 | 64 | 224 | 0.0 | 0.0 | 0.00 | 0.00 | 0.00 | 60 | 1015.2 |
| 20260901053106 | 63 | 224 | 0.0 | 0.0 | 0.00 | 0.00 | 0.00 | 60 | 1014.7 |
| 20260901052850 | 64 | 224 | 0.0 | 0.0 | 0.00 | 0.00 | 0.00 | 60 | 1015.1 |
| 20260901052349 | 64 | 224 | 0.0 | 0.0 | 0.00 | 0.00 | 0.00 | 60 | 1015.2 |
| 20260901051847 | 64 | 224 | 0.0 | 0.0 | 0.00 | 0.00 | 0.00 | 60 | 1015.2 |
| 20260901051548 | 63 | 224 | 0.0 | 0.0 | 0.00 | 0.00 | 0.00 | 60 | 1014.7 |
| 20260901051346 | 64 | 224 | 0.0 | 0.0 | 0.00 | 0.00 | 0.00 | 61 | 1015.2 |
| 20260901050842 | 64 | 224 | 0.0 | 0.0 | 0.00 | 0.00 | 0.00 | 61 | 1015.3 |
| 20260901050342 | 64 | 224 | 0.0 | 0.0 | 0.00 | 0.00 | 0.00 | 61 | 1015.3 |
| 20260901050036 | 63 | 224 | 0.0 | 0.0 | 0.00 | 0.00 | 0.00 | 61 | 1014.8 |
| 20260901045835 | 64 | 224 | 0.0 | 0.0 | 0.00 | 0.00 | 0.00 | 61 | 1015.1 |
| 20260901045354 | 64 | 224 | 0.0 | 0.0 | 0.00 | 0.00 | 0.00 | 61 | 1015.2 |
| 20260901044853 | 64 | 224 | 0.0 | 0.0 | 0.00 | 0.00 | 0.00 | 61 | 1015.2 |
| 20260901044511 | 63 | 224 | 0.0 | 0.0 | 0.00 | 0.00 | 0.00 | 62 | 1014.7 |
| 20260901044411 | 64 | 224 | 0.0 | 0.0 | 0.00 | 0.00 | 0.00 | 62 | 1015.3 |
| 20260901043903 | 64 | 224 | 0.0 | 0.0 | 0.00 | 0.00 | 0.00 | 63 | 1015.2 |
| 20260901043342 | 64 | 224 | 0.0 | 0.0 | 0.00 | 0.00 | 0.00 | 63 | 1015.1 |
| 20260901043041 | 64 | 224 | 0.0 | 0.0 | 0.00 | 0.00 | 0.00 | 63 | 1014.7 |
| 20260901042839 | 64 | 224 | 0.0 | 0.0 | 0.00 | 0.00 | 0.00 | 64 | 1015.1 |
| 20260901042338 | 64 | 224 | 0.0 | 0.0 | 0.00 | 0.00 | 0.00 | 64 | 1014.9 |
| 20260901041854 | 65 | 224 | 0.0 | 0.0 | 0.00 | 0.00 | 0.00 | 64 | 1015.0 |
| 20260901041553 | 64 | 224 | 0.0 | 0.0 | 0.00 | 0.00 | 0.00 | 64 | 1014.7 |
| 20260901041351 | 65 | 224 | 0.0 | 0.0 | 0.00 | 0.00 | 0.00 | 65 | 1015.1 |
| 20260901040848 | 65 | 224 | 0.0 | 0.0 | 0.00 | 0.00 | 0.00 | 65 | 1015.1 |
| 20260901040347 | 65 | 224 | 0.0 | 0.0 | 0.00 | 0.00 | 0.00 | 65 | 1015.2 |
| 20260901040005 | 65 | 224 | 0.0 | 0.0 | 0.00 | 0.00 | 0.00 | 65 | 1014.6 |
| 20260901035903 | 65 | 224 | 0.0 | 1.0 | 0.00 | 0.00 | 0.00 | 65 | 1015.1 |
| 20260901035339 | 65 | 224 | 0.0 | 1.0 | 0.00 | 0.00 | 0.00 | 65 | 1015.1 |
| 20260901034852 | 65 | 224 | 0.0 | 0.0 | 0.00 | 0.00 | 0.00 | 65 | 1015.0 |
| 20260901034553 | 65 | 224 | 0.0 | 0.0 | 0.00 | 0.00 | 0.00 | 65 | 1014.6 |
| 20260901034353 | 65 | 224 | 0.0 | 0.0 | 0.00 | 0.00 | 0.00 | 65 | 1015.1 |
| 20260901033848 | 66 | 224 | 0.0 | 0.0 | 0.00 | 0.00 | 0.00 | 65 | 1015.2 |
| 20260901033408 | 66 | 224 | 0.0 | 0.0 | 0.00 | 0.00 | 0.00 | 65 | 1015.2 |
| 20260901033011 | 65 | 224 | 0.0 | 0.0 | 0.00 | 0.00 | 0.00 | 65 | 1014.8 |
| 20260901032905 | 66 | 224 | 0.0 | 1.0 | 0.00 | 0.00 | 0.00 | 65 | 1015.3 |
| 20260901032423 | 66 | 225 | 0.0 | 1.0 | 0.00 | 0.00 | 0.00 | 65 | 1015.3 |
| 20260901031834 | 66 | 232 | 0.0 | 0.0 | 0.00 | 0.00 | 0.00 | 65 | 1015.3 |
| 20260901031513 | 66 | 232 | 0.0 | 0.0 | 0.00 | 0.00 | 0.00 | 65 | 1014.8 |
| 20260901031412 | 66 | 232 | 0.0 | 0.0 | 0.00 | 0.00 | 0.00 | 65 | 1015.2 |